Weather History for Charleston, SC

Change the Weather History Date:

Wednesday, February 6, 2013

  Actual Average (KCHS) Record (KCHS)
Temperature  
Mean Temperature 60 °F 50 °F  
Max Temperature 71 °F 61 °F 77 °F (2008)
Min Temperature 48 °F 39 °F 19 °F (1966)
Degree Days  
Heating Degree Days 6 15  
Month to date heating degree days 92  
Since 1 July heating degree days 1351  
Cooling Degree Days 0 0  
Month to date cooling degree days 0  
Year to date cooling degree days 2  
Growing Degree Days 10 (Base 50)    
Moisture  
Dew Point 49 °F    
Average Humidity 76    
Maximum Humidity 94    
Minimum Humidity 41    
Precipitation  
Precipitation 0.00 in 0.11 in 1.51 in (1986)
Month to date precipitation 0.67  
Year to date precipitation 4.38  
Sea Level Pressure  
Sea Level Pressure 30.12 in    
Wind  
Wind Speed 3 mph (SSW)    
Max Wind Speed 12 mph    
Max Gust Speed -    
Visibility 9 miles    
Events      
T = Trace of Precipitation, MM = Missing Value Source: NWS Daily Summary

Daily Weather History Graph

Daily Weather History Graph

Search for Another Location

Airport:

Trip Planner

Search our weather history database for the weather conditions in past years. The results will help you decide how hot, cold, wet, or windy it might be!

Date:

Astronomy

Feb. 06, 2013 Rise Set
Actual Time 7:10 AM EST 5:57 PM EST
Civil Twilight 6:45 AM EST 6:23 PM EST
Nautical Twilight 6:16 AM EST 6:52 PM EST
Astronomical Twilight 5:47 AM EST 7:21 PM EST
Moon 3:46 AM EST (2/6) 2:20 PM EST (2/6)
Length of Visible Light 11h 38m
Length of Day
10h 46m
Waning Crescent, 17% of the Moon is Illuminated
Feb 6
Waning Crescent
Feb 10
New
Feb 17
First Quarter
Feb 25
Full
Mar 4
Last Quarter

Hourly Weather History & Observations

Time (EST) Temp. Dew Point Humidity Pressure Visibility Wind Dir Wind Speed Gust Speed Precip Events Conditions
12:15 AM 53.6 °F 46.4 °F 77% 30.04 in 10.0 mi SW 5.8 mph - 0.00 in   Clear
12:35 AM 53.6 °F 46.4 °F 77% 30.04 in 10.0 mi SW 6.9 mph - 0.00 in   Clear
1:15 AM 55.4 °F 46.4 °F 72% 30.04 in 10.0 mi WSW 5.8 mph - 0.00 in   Partly Cloudy
1:35 AM 55.4 °F 46.4 °F 72% 30.04 in 10.0 mi West 6.9 mph - 0.00 in   Mostly Cloudy
1:55 AM 55.4 °F 46.4 °F 72% 30.04 in 10.0 mi West 6.9 mph - 0.00 in   Mostly Cloudy
2:15 AM 55.4 °F 46.4 °F 72% 30.04 in 10.0 mi WSW 5.8 mph - 0.00 in   Partly Cloudy
2:35 AM 53.6 °F 46.4 °F 77% 30.05 in 10.0 mi Calm Calm - 0.00 in   Scattered Clouds
2:55 AM 53.6 °F 46.4 °F 77% 30.05 in 10.0 mi Calm Calm - 0.00 in   Overcast
3:15 AM 53.6 °F 46.4 °F 77% 30.05 in 10.0 mi Calm Calm - 0.00 in   Overcast
3:35 AM 51.8 °F 46.4 °F 82% 30.05 in 10.0 mi Calm Calm - 0.00 in   Partly Cloudy
3:55 AM 53.6 °F 46.4 °F 77% 30.05 in 10.0 mi West 4.6 mph - 0.00 in   Clear
4:15 AM 53.6 °F 46.4 °F 77% 30.05 in 10.0 mi Calm Calm - 0.00 in   Clear
4:35 AM 51.8 °F 46.4 °F 82% 30.05 in 10.0 mi Calm Calm - 0.00 in   Clear
4:55 AM 50.0 °F 46.4 °F 87% 30.06 in 10.0 mi Calm Calm - 0.00 in   Clear
5:15 AM 50.0 °F 46.4 °F 87% 30.06 in 10.0 mi Calm Calm - 0.00 in   Clear
5:35 AM 50.0 °F 46.4 °F 87% 30.07 in 10.0 mi Calm Calm - 0.00 in   Clear
5:55 AM 51.8 °F 48.2 °F 88% 30.08 in 10.0 mi Calm Calm - 0.00 in   Clear
6:15 AM 50.0 °F 48.2 °F 94% 30.08 in 10.0 mi Calm Calm - 0.00 in   Clear
6:35 AM 48.2 °F 46.4 °F 93% 30.09 in 10.0 mi Calm Calm - 0.00 in   Clear
6:55 AM 48.2 °F 46.4 °F 93% 30.10 in 7.0 mi Calm Calm - 0.00 in   Clear
7:15 AM 48.2 °F 46.4 °F 93% 30.10 in 8.0 mi Calm Calm - 0.00 in   Clear
7:35 AM 48.2 °F 46.4 °F 93% 30.12 in 6.0 mi Calm Calm - 0.00 in   Clear
7:55 AM 50.0 °F 48.2 °F 94% 30.12 in 10.0 mi Calm Calm - 0.00 in   Clear
8:15 AM 51.8 °F 48.2 °F 88% 30.13 in 10.0 mi Calm Calm - 0.00 in   Clear
8:35 AM 55.4 °F 50.0 °F 82% 30.14 in 9.0 mi Calm Calm - 0.00 in   Clear
8:55 AM 57.2 °F 51.8 °F 82% 30.15 in 10.0 mi WNW 4.6 mph - 0.00 in   Clear
9:15 AM 59.0 °F 51.8 °F 77% 30.15 in 10.0 mi NW 6.9 mph - 0.00 in   Clear
9:35 AM 60.8 °F 51.8 °F 72% 30.16 in 10.0 mi WNW 3.5 mph - 0.00 in   Clear
9:55 AM 62.6 °F 50.0 °F 63% 30.16 in 10.0 mi Calm Calm - 0.00 in   Clear
10:15 AM 62.6 °F 50.0 °F 63% 30.16 in 10.0 mi NNW 4.6 mph - 0.00 in   Clear
10:35 AM 66.2 °F 50.0 °F 56% 30.16 in 10.0 mi NW 5.8 mph - 0.00 in   Clear
10:55 AM 66.2 °F 48.2 °F 52% 30.17 in 10.0 mi Calm Calm - 0.00 in   Clear
11:15 AM 68.0 °F 46.4 °F 46% 30.17 in 10.0 mi Calm Calm - 0.00 in   Clear
11:35 AM 66.2 °F 48.2 °F 52% 30.16 in 10.0 mi Calm Calm - 0.00 in   Clear
11:55 AM 68.0 °F 48.2 °F 49% 30.16 in 10.0 mi Calm Calm - 0.00 in   Clear
12:15 PM 71.6 °F 46.4 °F 41% 30.15 in 10.0 mi Calm Calm - 0.00 in   Clear
12:35 PM 68.0 °F 48.2 °F 49% 30.14 in 10.0 mi South 6.9 mph - 0.00 in   Clear
12:55 PM 68.0 °F 51.8 °F 56% 30.14 in 10.0 mi SSE 6.9 mph - 0.00 in   Clear
1:15 PM 66.2 °F 51.8 °F 60% 30.13 in 10.0 mi South 8.1 mph - 0.00 in   Clear
1:35 PM 66.2 °F 51.8 °F 60% 30.12 in 10.0 mi SSE 8.1 mph - 0.00 in   Clear
1:55 PM 68.0 °F 51.8 °F 56% 30.12 in 10.0 mi South 9.2 mph - 0.00 in   Clear
2:15 PM 68.0 °F 50.0 °F 52% 30.11 in 10.0 mi South 11.5 mph - 0.00 in   Clear
2:35 PM 66.2 °F 50.0 °F 56% 30.11 in 10.0 mi South 11.5 mph - 0.00 in   Clear
2:55 PM 64.4 °F 51.8 °F 64% 30.11 in 10.0 mi South 11.5 mph - 0.00 in   Clear
3:15 PM 64.4 °F 51.8 °F 64% 30.12 in 10.0 mi South 11.5 mph - 0.00 in   Clear
3:35 PM 64.4 °F 51.8 °F 64% 30.12 in 10.0 mi SSE 9.2 mph - 0.00 in   Clear
3:55 PM 64.4 °F 51.8 °F 64% 30.12 in 10.0 mi SSE 9.2 mph - 0.00 in   Clear
4:35 PM 62.6 °F 51.8 °F 68% 30.12 in 10.0 mi SE 6.9 mph - 0.00 in   Clear
4:55 PM 62.6 °F 51.8 °F 68% 30.12 in 10.0 mi SSE 5.8 mph - 0.00 in   Clear
5:15 PM 62.6 °F 51.8 °F 68% 30.13 in 10.0 mi SE 4.6 mph - 0.00 in   Clear
5:55 PM 59.0 °F 53.6 °F 82% 30.13 in 8.0 mi Calm Calm - 0.00 in   Clear
6:15 PM 57.2 °F 53.6 °F 88% 30.14 in 8.0 mi Calm Calm - 0.00 in   Clear
6:35 PM 57.2 °F 53.6 °F 88% 30.14 in 8.0 mi Calm Calm - 0.00 in   Clear
6:55 PM 55.4 °F 51.8 °F 88% 30.15 in 7.0 mi East 3.5 mph - 0.00 in   Clear
7:15 PM 55.4 °F 51.8 °F 88% 30.15 in 7.0 mi Calm Calm - 0.00 in   Clear
7:35 PM 53.6 °F 51.8 °F 94% 30.16 in 8.0 mi Calm Calm - 0.00 in   Clear
7:55 PM 55.4 °F 51.8 °F 88% 30.16 in 8.0 mi Calm Calm - 0.00 in   Clear
8:15 PM 55.4 °F 51.8 °F 88% 30.17 in 9.0 mi Calm Calm - 0.00 in   Clear
8:35 PM 53.6 °F 50.0 °F 88% 30.17 in 9.0 mi Calm Calm - 0.00 in   Clear
8:55 PM 53.6 °F 51.8 °F 94% 30.17 in 6.0 mi Calm Calm - 0.00 in   Clear
9:15 PM 53.6 °F 51.8 °F 94% 30.16 in 4.0 mi Calm Calm - 0.00 in   Clear
9:35 PM 53.6 °F 51.8 °F 94% 30.15 in 5.0 mi Calm Calm - 0.00 in   Clear
9:55 PM 53.6 °F 51.8 °F 94% 30.16 in 7.0 mi Calm Calm - 0.00 in   Clear
10:15 PM 51.8 °F 48.2 °F 88% 30.18 in 3.0 mi Calm Calm - 0.00 in   Clear
10:35 PM 51.8 °F 48.2 °F 88% 30.19 in 6.0 mi Calm Calm - 0.00 in   Clear
10:55 PM 51.8 °F 48.2 °F 88% 30.19 in 8.0 mi Calm Calm - 0.00 in   Clear
11:35 PM 51.8 °F 48.2 °F 88% 30.19 in 7.0 mi Calm Calm - 0.00 in   Clear
11:55 PM 50.0 °F 46.4 °F 87% 30.18 in 5.0 mi Calm Calm - 0.00 in   Clear